Regional Weather Roundup
Issued by NWS

Home | Current Version | Previous Version | Text Only | Print | Product List | Glossary On
Versions: 1 2 3 4 5 6 7 8 9 10 11 12 13 14 15 16 17 18 19 20 21 22 23 24 25 26 27 28 29 30 31 32 33 34 35 36 37 38 39 40 41 42 43 44 45 46 47 48 49 50
000
ASUS46 KSEW 222010
RWRWA

WASHINGTON REGIONAL WEATHER ROUNDUP
NATIONAL WEATHER SERVICE SEATTLE WA
100 PM PDT TUE JUL 22 2014

NOTE:"FAIR" INDICATES FEW OR NO CLOUDS BELOW 12,000 FEET WITH NO
SIGNIFICANT WEATHER AND/OR OBSTRUCTIONS TO VISIBILITY.

WAZ505-507>509-222100-
SEATTLE, TACOMA, EVERETT, AND VICINITY

CITY           SKY/WX    TMP DP  RH WIND       PRES   REMARKS
EVERETT        CLOUDY    62  51  67 CALM      30.08S
BOEING FIELD   CLOUDY    66  52  60 VRB6      30.08R
RENTON         CLOUDY    66  53  63 S7        30.07S
SEATAC AIRPORT CLOUDY    61  52  72 S7        30.10R
JBLM-MCCHORD   CLOUDY    63  53  69 VRB3      30.08F
PUYALLUP       MOCLDY    61  55  82 CALM      30.09S
JBLM-FT LEWIS  CLOUDY    63  52  67 CALM      30.08S
TACOMA NARROWS CLOUDY    62  49  62 CALM      30.08F
$$

WAZ001-503-506-510-514-515-222100-
NORTH INTERIOR

CITY           SKY/WX    TMP DP  RH WIND       PRES   REMARKS
BELLINGHAM     CLOUDY    64  54  69 VRB6      30.06R
FRIDAY HARBOR  CLOUDY    59  51  75 E5        30.07R
EASTSOUND      FAIR      66  54  63 SW9       30.04S
PORT ANGELES   FAIR      65  48  54 N6        30.06S
NAS WHIDBEY    LGT RAIN  61  55  81 CALM      30.08R
BURLINGTON     CLOUDY    66  52  59 SW8       30.08S
$$

WAZ020-022-039-040-504-511-512-222100-
SOUTHWEST INTERIOR

CITY           SKY/WX    TMP DP  RH WIND       PRES   REMARKS
SHELTON        CLOUDY    62  53  72 CALM      30.05S
OLYMPIA        CLOUDY    63  52  67 SW5       30.08S
CHEHALIS       CLOUDY    66  55  68 SW5       30.08S
KELSO          CLOUDY    66  54  63 CALM      30.10S
VANCOUVER      CLOUDY    67  58  72 W3        30.06S
SCAPPOOSE, OR  PTSUNNY   67  58  72 VRB6      30.06S
PORTLAND, OR   PTSUNNY   69  58  67 VRB5      30.06F
$$

WAZ021-516-517-222100-
WASHINGTON COAST

CITY           SKY/WX    TMP DP  RH WIND       PRES   REMARKS
FORKS          CLOUDY    65  53  65 W8        30.06S
HOQUIAM        CLOUDY    65  50  58 CALM      30.06F
ASTORIA, OR    FAIR      68  51  54 N8        30.05S
$$

WAZ019-023-024-040-518-519-222100-
CASCADE MOUNTAINS AND COLUMBIA GORGE

CITY           SKY/WX    TMP DP  RH WIND       PRES   REMARKS
STAMPEDE PASS  NOT AVBL
TROUTDALE, OR  PTSUNNY   72  58  61 SE3       30.04F
THE DALLES, OR PTSUNNY   76  59  55 NW12      30.03S
$$

WAZ026-027-041>044-520-521-222100-
EAST SLOPES

CITY           SKY/WX    TMP DP  RH WIND       PRES   REMARKS
OMAK           CLOUDY    69  52  54 N5        30.11R
WENATCHEE      PTSUNNY   68  57  68 W7        30.07S
ELLENSBURG     CLOUDY    68  57  68 W5        30.08S
YAKIMA         FAIR      74  57  55 CALM      30.06S
$$

WAZ028-034-035-222100-
COLUMBIA BASIN

CITY           SKY/WX    TMP DP  RH WIND       PRES   REMARKS
EPHRATA        PTSUNNY   75  49  39 CALM      30.07S
MOSES LAKE     PTSUNNY   73  50  44 CALM      30.08S
PASCO          FAIR      81  52  36 NE5       30.03F
HERMISTON, OR  FAIR      79  51  37 NE3       30.03F
$$

WAZ036>038-222100-
NORTHEAST WASHINGTON

CITY           SKY/WX    TMP DP  RH WIND       PRES   REMARKS
SPOKANE GEIGER PTSUNNY   69  54  58 NE9       30.13F
SPOKANE FELTS  FAIR      70  55  59 SE7       30.14F
FAIRCHILD AFB  PTSUNNY   68  54  61 E9        30.14S
COEURDALENE,ID FAIR      64  57  77 MISG      30.16R
DEER PARK      FAIR      69  56  62 NE8       30.16S
$$

WAZ029>033-222100-
SOUTHEAST WASHINGTON

CITY           SKY/WX    TMP DP  RH WIND       PRES   REMARKS
PULLMAN        FAIR      77  51  40 NW3       30.12S
LEWISTON, ID   FAIR      88  47  24 VRB6      30.02F
WALLA WALLA    FAIR      84  49  29 VRB5      30.05F
PENDLETON, OR  FAIR      79  48  33 N10       30.05S
$$


USA.gov is the U.S. government's official web portal to all federal, state and local government web resources and services.